Flag for Canada Weather past 2 weeks in Newmarket, Ontario, Canada

Now
57 °F

Overcast.


Feels Like: 57 °F
Forecast: 47 / 74 °F
Wind: No wind

Location: Borden

Current Time: Aug 28, 2015 at 1:36:29 AM

Latest Report: Aug 28, 2015 at 1:00 AM


Visibility: 9 mi

Pressure: 30.18 "Hg

Humidity: 100%

Dew point: 57 °F

Location of NewmarketLocation

Historic Weather in Newmarket — Graph

°F

Newmarket temperature yesterday

Maximum temperature yesterday: 63 °F (at 1:51 PM)
Minimum temperature yesterday: 55 °F (at 2:57 AM)
Average temperature yesterday: 59 °F

Past Weeks' High & Low Weather Summary

 TemperatureHumidityPressure
High88 °F (Aug 16, 2:00 PM)100% (Aug 13, 12:00 AM)30.22 "Hg (Aug 13, 12:00 AM)
Low43 °F (Aug 22, 6:00 AM)40% (Aug 16, 4:00 PM)29.66 "Hg (Aug 20, 7:00 AM)
Average67 °F81%29.98 "Hg
* Reported Midnight between Aug 12 and Aug 13 — Midnight between Aug 27 and Aug 28, Newmarket, Weather by CustomWeather, © 2015

Note: Actual official high and low records may vary slightly from our data, if they occured in-between our weather recording intervals... More about our weather records

Advertising

Newmarket weather history for previous 24 hours

 ConditionsComfort  
Time TempWeatherWind HumidityBarometerVisibility
12:00 AM
Fri, Aug 28
57 °FOvercast.No wind100%30.18 "Hg9 mi
11:00 PM
Thu, Aug 27
57 °FOvercast.2 mph100%30.19 "Hg9 mi
10:00 PM57 °FOvercast.No wind100%30.18 "Hg9 mi
9:00 PM55 °FPartly sunny.No wind100%30.17 "Hg9 mi
8:00 PM61 °FOvercast.No wind88%30.16 "Hg9 mi
7:00 PM63 °FOvercast.2 mph77%30.16 "Hg9 mi
6:00 PM63 °FOvercast.5 mph77%30.15 "Hg9 mi
5:00 PM63 °FOvercast.8 mph77%30.14 "Hg9 mi
4:00 PM63 °FOvercast.6 mph77%30.15 "Hg9 mi
3:00 PM63 °FOvercast.3 mph77%30.16 "Hg9 mi
2:48 PM63 °FOvercast.6 mph77%30.15 "Hg9 mi
2:00 PM63 °FOvercast.7 mph83%30.16 "Hg9 mi
1:51 PM63 °FMostly cloudy.7 mph77%30.16 "Hg9 mi
1:01 PM61 °FMore clouds than sun.10 mph83%30.16 "Hg9 mi
12:00 PM61 °FOvercast.3 mph88%30.17 "Hg9 mi
11:00 AM57 °FOvercast.5 mph100%30.16 "Hg9 mi
10:00 AM57 °FMostly cloudy.No wind100%30.15 "Hg9 mi
9:00 AM57 °FLow clouds.3 mph94%30.14 "Hg3 mi
8:04 AM57 °FOvercast.No wind100%30.12 "Hg9 mi
8:01 AM57 °FOvercast.No wind100%30.12 "Hg9 mi
7:00 AM55 °FMostly cloudy.No wind100%30.11 "Hg9 mi
6:00 AM55 °FOvercast.No wind100%30.10 "Hg4 mi
5:00 AM55 °FDrizzle. Overcast.5 mph100%30.09 "Hg3 mi
4:59 AM55 °FDrizzle. Overcast.5 mph100%30.09 "Hg3 mi
4:01 AM55 °FPassing clouds.3 mph100%30.07 "Hg4 mi
3:00 AM55 °FDrizzle. Low clouds.2 mph100%30.07 "Hg1 mi
2:57 AM55 °FDrizzle. Low clouds.3 mph100%30.07 "Hg2 mi
2:00 AM57 °FMostly cloudy.6 mph88%30.07 "Hg9 mi
1:56 AM57 °FMostly cloudy.5 mph88%30.07 "Hg9 mi
1:00 AM57 °FMostly cloudy.7 mph88%30.06 "Hg9 mi
Weather by CustomWeather, © 2015

See weather overviewHow to use our weather pages